Home   Weather   Mysen   Past weeks

Flag for Norway Past Weather in Mysen, Norway — Yesterday and Last 2 Weeks

Now
37 °F

Low clouds.


Feels Like: 32 °F
Forecast: 25 / 33 °F
Wind: 6 mph from Southwest

Location: Rygge

Current Time: Jan 22, 2017 at 5:05:57 am

Latest Report: Jan 22, 2017 at 4:00 am


Visibility: 0 mi

Pressure: 30.31 "Hg

Humidity: 99%

Dew Point: 37 °F

Location of MysenLocation

Past Weather in Mysen — Graph

°F

Mysen Temperature Yesterday

Maximum temperature yesterday: 43 °F (at 12:00 am)
Minimum temperature yesterday: 27 °F (at 9:00 pm)
Average temperature yesterday: 32 °F

High & Low Weather Summary for the Past Weeks

 TemperatureHumidityPressure
High47 °F (Jan 19, 8:00 pm)100% (Jan 9, 2:00 am)30.47 "Hg (Jan 9, 2:00 am)
Low16 °F (Jan 16, 3:00 am)57% (Jan 15, 2:00 pm)28.50 "Hg (Jan 11, 3:00 pm)
Average33 °F86%29.90 "Hg
* Reported Jan 7 4:00 am — Jan 22 4:00 am, Mysen, Weather by CustomWeather, © 2017

Note: Actual official high and low records may vary slightly from our data, if they occured in-between our weather recording intervals... More about our weather records

Advertising

Mysen Weather History for the Previous 24 Hours

Scroll right to see more
 ConditionsComfort  
Time TempWeatherWind HumidityBarometerVisibility
4:00 am
Sun, Jan 22
37 °FLow clouds.6 mph99%30.31 "Hg1 mi
3:00 am36 °FLow clouds.3 mph99%30.33 "Hg0 mi
2:00 am35 °FLow clouds.5 mph99%30.34 "Hg0 mi
1:00 am35 °FLow clouds.5 mph100%30.35 "Hg0 mi
12:00 am33 °FLow clouds.2 mph99%30.36 "Hg0 mi
11:00 pm
Sat, Jan 21
32 °FLow clouds.2 mph99%30.37 "Hg0 mi
10:00 pm31 °FLow clouds.2 mph98%30.37 "Hg0 mi
9:00 pm27 °FClear.2 mph98%30.37 "Hg9 mi
8:00 pm28 °FClear.1 mph98%30.37 "Hg0 mi
7:00 pm29 °FClear.1 mph97%30.37 "Hg0 mi
6:00 pm30 °FClear.1 mph97%30.37 "Hg0 mi
5:00 pm32 °FClear.1 mph97%30.37 "Hg4 mi
4:00 pm34 °FSunny.No wind93%30.37 "Hg7 mi
3:00 pm37 °FSunny.2 mph89%30.37 "Hg12 mi
2:00 pm36 °FSunny.2 mph91%30.37 "Hg10 mi
1:00 pm35 °FOvercast.1 mph91%30.39 "Hg25 mi
12:00 pm33 °FOvercast.No wind94%30.38 "Hg25 mi
11:00 am31 °FOvercast.1 mph96%30.38 "Hg28 mi
10:00 am30 °FOvercast.2 mph96%30.38 "Hg25 mi
9:00 am28 °FPassing clouds.1 mph97%30.37 "Hg13 mi
8:00 am27 °FClear.2 mph97%30.36 "Hg5 mi
7:00 am28 °FClear.1 mph97%30.34 "Hg25 mi
6:00 am29 °FClear.2 mph97%30.34 "Hg22 mi
5:00 am29 °FClear.1 mph97%30.34 "Hg25 mi
Weather by CustomWeather, © 2017

See weather overviewHow to use our weather pages